Location: Unspecified
(0.0000°N, 0.0000°E)
Time: 16:00:48
(UTC+00:00)

NOSS 8 (F) - Visible Passes

Search period start: 31 May 2023 00:00
Search period end: 10 June 2023 00:00
Orbit: 364 x 1736 km, 63.3° (Epoch: 31 May)

Date Brightness Start Highest point End Pass type
(mag) Time Alt. Az. Time Alt. Az. Time Alt. Az.
31 May 9.2 05:09:53 10° NE 05:13:14 15° ENE 05:17:11 10° ESE visible
31 May 6.3 18:30:33 10° SSW 18:37:47 68° WNW 18:42:43 10° NNE visible
01 Jun 8.9 19:22:20 10° WSW 19:25:25 14° WNW 19:28:06 10° NW visible
02 Jun 8.7 04:56:02 10° NNE 05:00:30 23° ENE 05:06:10 10° ESE visible
02 Jun 7.2 18:18:23 10° SW 18:25:06 45° WNW 18:29:52 10° N visible
04 Jun 7.9 04:42:38 10° N 04:47:41 33° ENE 04:54:31 10° SE visible
05 Jun 9.2 03:46:27 10° ENE 03:47:19 10° ENE 03:48:12 10° E visible
05 Jun 6.2 05:29:58 10° NNW 05:35:46 67° WSW 05:44:05 10° SSE visible
06 Jun 7.1 04:29:26 10° N 04:34:51 47° ENE 04:42:29 10° SE visible
07 Jun 8.7 03:30:49 10° NE 03:34:23 16° ENE 03:38:38 10° ESE visible
07 Jun 6.5 05:17:26 10° NW 05:23:10 48° WSW 05:31:13 10° S visible
08 Jun 6.4 04:16:22 10° NNW 04:21:59 68° ENE 04:30:06 10° SSE visible
09 Jun 8.1 03:16:50 10° NNE 03:21:23 24° ENE 03:27:14 10° SE visible
09 Jun 6.8 05:05:01 10° NW 05:10:35 35° WSW 05:18:05 10° S visible
